Tracking 30313 objects as of 22-Apr-2025
HD Live streaming from Space Station
objects crossing your sky now

THORAD DELTA 1 DEB

Track THORAD DELTA 1 DEB now!
10-day predictions


NORAD ID: 8175
Int'l Code: 1974-089AR
Perigee: 1,262.8 km
Apogee: 1,560.5 km
Inclination: 102.6 °
Period: 113.9 minutes
Semi major axis: 7782 km
RCS: 0.0392 m2 (small)
Launch date: November 15, 1974
Source: United States (US)
Launch site: AIR FORCE WESTERN TEST RANGE (AFWTR)

Note: This is SATELLITE DEBRIS
Your satellite tracking list
Your tracking list is empty




NASA's NSSDC Master Catalog

Two Line Element Set (TLE):
1 08175U 74089AR  25110.30115759  .00004565  00000-0  23302-1 0  9990
2 08175 102.6218  11.7350 0191283 102.7643  18.7381 12.64483629275958
Source of the keplerian elements: AFSPC